This is the latest recevied weather packets stored in our database for station/object IU1OLT-6. If no packets are shown the sender has not sent any weather packets the latest 10 day(s).
| Time | Temp. | Humidity | Pressure | Rain* | Wind** | Luminosity | Snow |
|---|---|---|---|---|---|---|---|
| 1787970712 | 12.78° C | 99% | 1009.5 hPa | 0 mm | - | - | - |
| 1787969800 | 12.78° C | 99% | 1009 hPa | 0 mm | - | - | - |
| 1787968888 | 12.78° C | 99% | 1009.7 hPa | 0 mm | - | - | - |
| 1787967976 | 12.78° C | 99% | 1009.3 hPa | 0 mm | - | - | - |
| 1787967064 | 12.78° C | 99% | 1009.3 hPa | 0 mm | - | - | - |
| 1787966152 | 13.33° C | 99% | 1008.7 hPa | 0 mm | - | - | - |
| 1787965240 | 12.78° C | 99% | 1009.4 hPa | 0 mm | - | - | - |
| 1787964328 | 13.33° C | 99% | 1009.6 hPa | 0 mm | - | - | - |
| 1787963368 | 13.89° C | 99% | 1009 hPa | 0 mm | - | - | - |
| 1787962408 | 13.89° C | 99% | 1009.2 hPa | 0 mm | - | - | - |
| 1787961448 | 15° C | 99% | 1008.7 hPa | 0 mm | - | - | - |
| 1787960488 | 14.44° C | 99% | 1008.8 hPa | 0 mm | - | - | - |
| 1787959528 | 15° C | 99% | 1009.5 hPa | 0 mm | - | - | - |
| 1787958568 | 15.56° C | 99% | 1009.8 hPa | 0 mm | - | - | - |
| 1787957656 | 15° C | 99% | 1009.8 hPa | 0.25 mm | - | - | - |
| 1787956748 | 15.56° C | 98% | 1009.9 hPa | 0.25 mm | - | - | - |
| 1787955784 | 15.56° C | 99% | 1009.8 hPa | 0.25 mm | - | - | - |
| 1787954824 | 16.11° C | 99% | 1009.9 hPa | 0 mm | - | - | - |
| 1787953912 | 16.11° C | 99% | 1010.3 hPa | 0 mm | - | - | - |
| 1787952904 | 16.11° C | 99% | 1009.9 hPa | 0 mm | - | - | - |
| 1787951992 | 16.67° C | 99% | 1009.1 hPa | 0 mm | - | - | - |
| 1787951080 | 16.11° C | 99% | 1009.5 hPa | 0 mm | - | - | - |
| 1787950120 | 16.11° C | 98% | 1010.5 hPa | 0 mm | - | - | - |
| 1787949160 | 16.67° C | 99% | 1010.2 hPa | 0 mm | - | - | - |
| 1787948248 | 16.67° C | 98% | 1010.5 hPa | 0 mm | - | - | - |
* Rain latest hour (hover to see other rain measurements)
** Current wind speed in m/s (hover to see current wind gust speed)